| time (UTC) | temp F | wind direction | speed MPH | gust MPH | rain 1hr in | rain 24hr in | rain mn in | humidity % | barometer mb |
| 20260504050001 | 59 | 194 | 3.0 | 4.0 | 0.00 | 0.00 | 0.00 | 58 | 1002.7 |
| 20260504044502 | 59 | 186 | 3.0 | 3.0 | 0.00 | 0.00 | 0.00 | 58 | 1002.7 |
| 20260504043002 | 59 | 182 | 4.0 | 5.0 | 0.00 | 0.00 | 0.00 | 58 | 1002.7 |
| 20260504041501 | 59 | 180 | 5.0 | 6.0 | 0.00 | 0.00 | 0.00 | 58 | 1002.7 |
| 20260504040001 | 57 | 175 | 3.0 | 4.0 | 0.00 | 0.00 | 0.00 | 59 | 1002.7 |
| 20260504034501 | 57 | 180 | 2.0 | 3.0 | 0.00 | 0.00 | 0.00 | 59 | 1002.7 |
| 20260504033002 | 57 | 181 | 3.0 | 3.0 | 0.00 | 0.00 | 0.00 | 58 | 1002.7 |
| 20260504031502 | 57 | 197 | 3.0 | 3.0 | 0.00 | 0.00 | 0.00 | 58 | 1002.7 |
| 20260504030001 | 59 | 186 | 4.0 | 5.0 | 0.00 | 0.00 | 0.00 | 57 | 1002.7 |
| 20260504024502 | 59 | 170 | 3.0 | 4.0 | 0.00 | 0.00 | 0.00 | 57 | 1002.7 |
| 20260504023002 | 59 | 173 | 3.0 | 3.0 | 0.00 | 0.00 | 0.00 | 56 | 1002.7 |
| 20260504021502 | 59 | 176 | 3.0 | 3.0 | 0.00 | 0.00 | 0.00 | 56 | 1002.7 |
| 20260504020001 | 59 | 190 | 3.0 | 4.0 | 0.00 | 0.00 | 0.00 | 57 | 1002.7 |
| 20260504014501 | 59 | 178 | 4.0 | 4.0 | 0.00 | 0.00 | 0.00 | 56 | 1003.0 |
| 20260504013001 | 59 | 174 | 3.0 | 3.0 | 0.00 | 0.00 | 0.00 | 55 | 1003.0 |
| 20260504011502 | 60 | 205 | 5.0 | 5.0 | 0.00 | 0.00 | 0.00 | 54 | 1003.0 |
| 20260504010001 | 60 | 183 | 6.0 | 8.0 | 0.00 | 0.00 | 0.00 | 53 | 1003.0 |
| 20260504004501 | 60 | 187 | 6.0 | 7.0 | 0.00 | 0.00 | 0.00 | 53 | 1003.0 |
| 20260504003001 | 60 | 171 | 3.0 | 5.0 | 0.00 | 0.00 | 0.00 | 52 | 1003.0 |
| 20260504001502 | 60 | 216 | 4.0 | 4.0 | 0.00 | 0.00 | 0.00 | 52 | 1003.0 |
| 20260504000001 | 62 | 172 | 3.0 | 4.0 | 0.00 | 0.00 | 0.00 | 51 | 1003.0 |
| 20260503234501 | 62 | 187 | 4.0 | 5.0 | 0.00 | 0.00 | 0.00 | 50 | 1003.0 |
| 20260503233001 | 62 | 171 | 3.0 | 4.0 | 0.00 | 0.00 | 0.00 | 49 | 1003.0 |
| 20260503231501 | 62 | 186 | 3.0 | 4.0 | 0.00 | 0.00 | 0.00 | 48 | 1003.0 |
| 20260503230001 | 62 | 192 | 5.0 | 5.0 | 0.00 | 0.00 | 0.00 | 47 | 1003.0 |
| 20260503224501 | 62 | 155 | 3.0 | 4.0 | 0.00 | 0.00 | 0.00 | 47 | 1003.0 |
| 20260503223000 | 62 | 170 | 3.0 | 4.0 | 0.00 | 0.00 | 0.00 | 46 | 1003.0 |
| 20260503221502 | 64 | 183 | 3.0 | 3.0 | 0.00 | 0.00 | 0.00 | 45 | 1003.0 |
| 20260503220002 | 64 | 190 | 3.0 | 3.0 | 0.00 | 0.00 | 0.00 | 43 | 1003.0 |
| 20260503214501 | 64 | 155 | 3.0 | 3.0 | 0.00 | 0.00 | 0.00 | 42 | 1003.0 |
| 20260503213001 | 66 | 169 | 3.0 | 3.0 | 0.00 | 0.00 | 0.00 | 42 | 1003.0 |
| 20260503210001 | 66 | 151 | 2.0 | 3.0 | 0.00 | 0.00 | 0.00 | 40 | 1003.0 |
| 20260503204502 | 66 | 171 | 1.0 | 3.0 | 0.00 | 0.00 | 0.00 | 40 | 1003.0 |
| 20260503203002 | 68 | 173 | 3.0 | 3.0 | 0.00 | 0.00 | 0.00 | 39 | 1003.0 |
| 20260503201502 | 68 | 144 | 2.0 | 3.0 | 0.00 | 0.00 | 0.00 | 38 | 1003.0 |
| 20260503200002 | 69 | 186 | 4.0 | 4.0 | 0.00 | 0.00 | 0.00 | 37 | 1003.0 |
| 20260503194502 | 69 | 172 | 2.0 | 3.0 | 0.00 | 0.00 | 0.00 | 37 | 1003.0 |
| 20260503193001 | 69 | 138 | 1.0 | 3.0 | 0.00 | 0.00 | 0.00 | 36 | 1003.0 |
| 20260503191501 | 69 | 167 | 2.0 | 3.0 | 0.00 | 0.00 | 0.00 | 36 | 1003.0 |
| 20260503190002 | 69 | 145 | 1.0 | 1.0 | 0.00 | 0.00 | 0.00 | 36 | 1003.0 |
| 20260503184502 | 69 | 131 | 0.0 | 0.0 | 0.00 | 0.00 | 0.00 | 36 | 1003.0 |
| 20260503183001 | 71 | 161 | 1.0 | 1.0 | 0.00 | 0.00 | 0.00 | 33 | 1003.0 |
| 20260503181502 | 73 | 170 | 2.0 | 3.0 | 0.00 | 0.00 | 0.00 | 32 | 1003.0 |
| 20260503180001 | 75 | 148 | 1.0 | 2.0 | 0.00 | 0.00 | 0.00 | 30 | 1003.0 |
| 20260503174502 | 75 | 169 | 3.0 | 4.0 | 0.00 | 0.00 | 0.00 | 30 | 1003.0 |
| 20260503173000 | 77 | 197 | 4.0 | 6.0 | 0.00 | 0.00 | 0.00 | 27 | 1003.0 |
| 20260503171501 | 78 | 168 | 3.0 | 3.0 | 0.00 | 0.00 | 0.00 | 26 | 1003.0 |
| 20260503081501 | 75 | 194 | 4.0 | 5.0 | 0.00 | 0.00 | 0.00 | 36 | 1006.7 |
| 20260503071501 | 69 | 201 | 6.0 | 7.0 | 0.00 | 0.00 | 0.00 | 41 | 1007.4 |
| 20260503054501 | 62 | 174 | 3.0 | 3.0 | 0.00 | 0.00 | 0.00 | 53 | 1007.7 |
| 20260503053001 | 60 | 186 | 2.0 | 3.0 | 0.00 | 0.00 | 0.00 | 54 | 1007.7 |
| 20260503051502 | 59 | 177 | 3.0 | 4.0 | 0.00 | 0.00 | 0.00 | 56 | 1007.7 |